TITAN 3C TRANSTAGE DEB, 1668

Orbit data source: Space-Track

TITAN 3C TRANSTAGE DEB, 1668 is space debris in LEO originally from a launch on Fri, 15 Oct 1965 UTC launched from the Air Force Eastern Test Range (AFETR). Debris objects in space refer to the collection of defunct objects orbiting the Earth. Examples of debris include non-operational satellites, rocket bodies, and fragments generated from explosions, collisions, or faulty payload assembly.

Loading next visibility...
TITAN 3C TRANSTAGE DEB details
Identifier
1668, 1965-082AF
Orbit
LEO
Last TLE update16 hours ago
Origin
Flag of USUSAF SSD (US)
ManufacturerUnknown
MissionSpacecraft
Bus & MotorUnknown
Mass370 kg wet, 370 kg dry
Launch date (UTC)
1965-10-15 (59 years ago)
Launch vehicleUnknown
Launch site
Air Force Eastern Test Range (AFETR)
Object type
Payload
Rocket body
Debris
Shape & HBRUnknown
Radar Cross Section2.800 m², Large (>1 m²)

Expand to show TLE details & history

TLE from 16 hours ago
0 TITAN 3C TRANSTAGE DEB
1 01668U 65082AF  25042.94197136  .00003284  00000-0  41657-3 0  9998
2 01668  32.0677 287.0794 0014256 100.6959 259.5296 14.80281880145584
Epoch: 2025-02-11T22:36Z
Definitive object data (Epoch: 2025-02-11T22:36:26.325Z)
Latitude-0.00001°
Longitude165.73013°
Altitude628.896 km
Speed7.545 km/s
True Right ascension19h 08m 19s
True Declination0° 00' 00"
Sunlit
Object was in daylight at TLE epoch
Visualization TLE readout
Latitude-5.72987°
Longitude152.47078°
Altitude632.601 km
Speed7.542 km/s
Apparent Right ascension20h 12m 29s
Apparent Declination-61° 39' 48"
Sunlit
Object is in daylight
Visualization observer readout
Local Sidereal Time17:15:45
Azimuth159.682° S
Elevation-17.681°
Doppler factor1
Orbital elements
Apogee altitude642.062 km
Perigee altitude622.075 km
Semi-major axis7,010.205 km
Eccentricity0.0014256
Inclination32.0677°
RAAN287.0794°
Arg. of periapsis100.6959°
True anomaly259.36901°
Mean anomaly259.5296°
Eccentric anomaly259.4493°
Mean motion3.69783 °/min
BSTAR0.00041657
Orbital period97.35 mins
Loading maneuver chart data...

TITAN 3C TRANSTAGE DEB Visibility forecast

Observer location: undefined°, undefined

Span
Click to sort rows by Start time (UTC) header in descending order
Start Az.
Max El. time (UTC)
Max El. Az.
Max El.
End time (UTC)
End Az.
5 mins2025-02-12 19:53:37.072Z196.295° SSW2025-02-12 19:55:37.072Z167.651° S16.817°2025-02-12 19:58:37.072Z123.422° SE
6 mins2025-02-12 21:35:37.072Z226.031° WSW2025-02-12 21:38:37.072Z170.317° S25.954°2025-02-12 21:41:37.072Z120.708° SE
6 mins2025-02-12 23:18:37.072Z232.406° WSW2025-02-12 23:20:37.072Z196.905° SSW23.67°2025-02-12 23:24:37.072Z134.096° SE
|